Starlink 35804

operational
NORAD ID: 66356 Int'l Des: 2025-254 Owner: SPXS Country: US Constellation: starlink
LEOCIRCULAR

Über Starlink 35804

Beschreibung wird geladen...

Live-Position

3D-Globus wird geladen...

Nächste Überflüge

Höhenverlauf

Altitude vs Time

uPlot chart will show altitude changes over time

Zweizeiliger Elementsatz

1 66356C 25254Z 25311.11298611 .00529830 00000+0 78160-3 0 3114
2 66356 53.1599 93.7471 0009221 262.5483 94.4210 16.03637934 18
Epoch: 7. Nov. 2025 • Age: 24 hours

Aktueller Status

Höhe 263.3 km
Geschwindigkeit 7.75 km/s
Subsatellitenpunkt 4.42°N, 49.88°E
Startdatum 6. Nov. 2025
Alter 1 days
Typ internet

Technische Details

Klassifizierung Payload
Masse 575.00 kg
Trockenmasse 530.00 kg
Gesamtmasse 575.00 kg
Länge 0.30 m
Durchmesser 4.10 m
Spannweite 29.00 m
Form Box + pan
Hersteller SPXS
Bus-Typ Starlink V2MO
Phasenstatus In Orbit
Besitzer/Staat SPXS/US

Große Konstellationen

Loading constellations...